This demonstration page uses our WeatherBlox Daily Observations layout. Learn more.

Hourly Observations for September 25, 2018

Temp ( °F °C ) Dew Point ( °F °C ) Humidity (%) Winds ( mph kmh ) Pressure ( in mb ) Visibility ( mi km ) Precip ( " mm )
12:15 am 00:15 Cloudy 59 15.1 55 13 87 87 NNE 10 17 29.91 1013 10 16.09344 0 0
12:35 am 00:35 Mostly Cloudy 59 15 55 12.7 86 86 NNE 12 19 29.91 1013 10 16.09344 0 0
12:55 am 00:55 Mostly Cloudy 58 14.4 54 12.3 87 87 NE 16 26 29.91 1013 10 16.09344 0 0
1:15 am 01:15 Cloudy 58 14.2 54 12.2 88 88 NNE 15 24 29.91 1013 10 16.09344 0 0
1:35 am 01:35 Mostly Cloudy 57 13.7 54 12 90 90 NE 12 19 29.88 1012 10 16.09344 0 0
1:55 am 01:55 Partly Cloudy 56 13.3 53 11.9 91 91 NE 12 19 29.88 1012 10 16.09344 0 0
2:15 am 02:15 Clear 55 13 53 11.7 92 92 ENE 10 17 29.85 1011 10 16.09344 0 0
2:35 am 02:35 Clear 55 12.5 53 11.5 94 94 ENE 9 15 29.85 1011 10 16.09344 0 0
2:55 am 02:55 Clear 54 12.2 53 11.5 96 96 E 8 13 29.85 1011 10 16.09344 0 0
3:15 am 03:15 Clear 54 12 53 11.5 97 97 ENE 7 11 29.85 1011 10 16.09344 0 0
3:35 am 03:35 Clear 53 11.8 53 11.5 98 98 ENE 7 11 29.83 1010 10 16.09344 0 0
3:55 am 03:55 Clear 53 11.8 53 11.5 98 98 E 9 15 29.83 1010 10 16.09344 0 0
4:15 am 04:15 Clear 53 11.5 52 11.3 99 99 E 6 9 29.83 1010 10 16.09344 0 0
4:35 am 04:35 Clear 52 11.3 52 11.2 99 99 N 8 13 29.88 1012 10 16.09344 0 0
4:55 am 04:55 Mostly Cloudy 53 11.5 53 11.5 100 100 N 7 11 29.85 1011 10 16.09344 0 0
5:15 am 05:15 Cloudy 53 11.6 53 11.6 100 100 N 9 15 29.91 1013 10 16.09344 0 0
5:30 am 05:30 Cloudy 54 12 53 11.8 99 99 N 10 17 29.91 1013 10 16.09344 0 0
5:55 am 05:55 Cloudy 54 12 53 11.6 97 97 NNE 13 20 29.91 1013 10 16.09344 0 0
6:15 am 06:15 Cloudy 53 11.7 53 11.5 99 99 NNE 18 30 29.85 1011 10 16.09344 0 0
6:35 am 06:35 Cloudy 53 11.8 53 11.6 99 99 NNW 12 19 29.97 1015 10 16.09344 0 0
6:55 am 06:55 Cloudy with Light Rain 54 12 53 11.6 97 97 NW 17 28 30.03 1017 10 16.09344 0 0
7:15 am 07:15 Cloudy with Light Rain 53 11.5 53 11.5 100 100 N 16 26 30 1016 7 11.265408 0.02 0.508
7:35 am 07:35 Cloudy 53 11.5 53 11.5 100 100 N 14 22 30 1016 10 16.09344 0.02 0.508
7:55 am 07:55 Cloudy 53 11.5 53 11.5 100 100 N 13 20 30 1016 10 16.09344 0.02 0.508
8:15 am 08:15 Cloudy with Light Rain 53 11.6 53 11.5 99 99 N 13 20 30.03 1017 10 16.09344 0 0
8:35 am 08:35 Cloudy 53 11.6 53 11.5 99 99 N 12 19 30.03 1017 10 16.09344 0 0
8:55 am 08:55 Cloudy 53 11.7 52 11.3 97 97 N 10 17 30.03 1017 10 16.09344 0 0
9:15 am 09:15 Cloudy 53 11.8 52 11.2 96 96 N 15 24 30.06 1018 10 16.09344 0 0
9:35 am 09:35 Cloudy 54 12 52 11.1 94 94 N 12 19 30.06 1018 10 16.09344 0 0
9:55 am 09:55 Cloudy 55 13 53 11.4 90 90 N 14 22 30.06 1018 10 16.09344 0 0
10:15 am 10:15 Mostly Cloudy 57 14 53 11.9 87 87 N 15 24 30.06 1018 10 16.09344 0 0
10:35 am 10:35 Cloudy 56 13.2 52 11 87 87 N 13 20 30.09 1019 10 16.09344 0 0
10:55 am 10:55 Cloudy 57 13.7 51 10.4 81 81 NNW 21 33 30.06 1018 10 16.09344 0 0
11:15 am 11:15 Cloudy 57 13.8 50 10.1 79 79 NNW 16 26 30.09 1019 10 16.09344 0 0
11:35 am 11:35 Cloudy 57 13.7 49 9.5 76 76 NNW 18 30 30.12 1020 10 16.09344 0 0
11:55 am 11:55 Cloudy 58 14.5 49 9.4 72 72 N 16 26 30.09 1019 10 16.09344 0 0
12:15 pm 12:15 Cloudy 59 15.1 48 9 67 67 N 20 31 30.09 1019 10 16.09344 0 0
12:35 pm 12:35 Cloudy 60 15.8 48 8.8 63 63 NNW 20 31 30.09 1019 10 16.09344 0 0
12:55 pm 12:55 Cloudy 61 15.9 46 8 60 60 N 20 31 30.09 1019 10 16.09344 0 0
1:15 pm 13:15 Mostly Cloudy 63 17 46 7.7 55 55 N 22 35 30.09 1019 10 16.09344 0 0
1:35 pm 13:35 Mostly Cloudy 63 17.1 46 7.5 53 53 N 15 24 30.09 1019 10 16.09344 0 0
1:55 pm 13:55 Partly Cloudy 64 17.5 45 7.4 52 52 NNW 17 28 30.06 1018 10 16.09344 0 0
2:15 pm 14:15 Partly Cloudy 64 18 44 6.7 48 48 NNW 23 37 30.06 1018 10 16.09344 0 0
2:35 pm 14:35 Partly Cloudy 65 18.1 43 6.1 46 46 NNW 17 28 30.06 1018 10 16.09344 0 0
2:55 pm 14:55 Partly Cloudy 64 17.9 43 6 46 46 NNW 20 31 30.03 1017 10 16.09344 0 0
3:15 pm 15:15 Partly Cloudy 64 17.6 43 6.1 47 47 N 17 28 30.06 1018 10 16.09344 0 0
3:35 pm 15:35 Partly Cloudy 65 18.6 43 6.1 44 44 NNW 16 26 30.06 1018 10 16.09344 0 0
3:55 pm 15:55 Partly Cloudy 63 17.2 43 6.1 48 48 N 16 26 30.06 1018 10 16.09344 0 0
4:15 pm 16:15 Sunny 63 17.4 42 5.6 46 46 NNW 13 20 30.06 1018 10 16.09344 0 0
4:35 pm 16:35 Mostly Cloudy 65 18.1 42 5.6 44 44 N 12 19 30.06 1018 10 16.09344 0 0
4:55 pm 16:55 Partly Cloudy 64 18 41 4.8 42 42 N 15 24 30.06 1018 10 16.09344 0 0
5:15 pm 17:15 Partly Cloudy 65 18.1 40 4.3 40 40 N 17 28 30.06 1018 10 16.09344 0 0
5:35 pm 17:35 Partly Cloudy 65 18.5 40 4.5 40 40 NNW 15 24 30.06 1018 10 16.09344 0 0
5:55 pm 17:55 Sunny 64 18 38 3.5 38 38 NNW 10 17 30.06 1018 10 16.09344 0 0
6:15 pm 18:15 Sunny 64 17.6 38 3.5 39 39 N 16 26 30.06 1018 10 16.09344 0 0
6:35 pm 18:35 Sunny 63 17.2 37 2.9 39 39 N 14 22 30.06 1018 10 16.09344 0 0
6:55 pm 18:55 Sunny 62 16.5 37 2.9 40 40 N 8 13 30.09 1019 10 16.09344 0 0
7:15 pm 19:15 Sunny 59 15.2 38 3.2 45 45 N 9 15 30.12 1020 10 16.09344 0 0
7:35 pm 19:35 Clear 57 13.7 38 3.2 49 49 N 6 9 30.15 1021 10 16.09344 0 0
7:55 pm 19:55 Clear 53 11.9 38 3.6 57 57 N 5 7 30.18 1022 10 16.09344 0 0
8:15 pm 20:15 Clear 52 10.9 38 3.5 61 61 N 5 7 30.21 1023 10 16.09344 0 0
8:35 pm 20:35 Clear 51 10.5 40 4.6 67 67 N 5 7 30.21 1023 10 16.09344 0 0
8:55 pm 20:55 Clear 50 10 40 4.4 68 68 Calm 30.21 1023 10 16.09344 0 0
9:15 pm 21:15 Clear 49 9.5 40 4.7 72 72 Calm 30.24 1024 10 16.09344 0 0
9:35 pm 21:35 Clear 49 9.6 40 4.4 70 70 Calm 30.24 1024 10 16.09344 0 0
9:55 pm 21:55 Clear 47 8.2 41 5 80 80 Calm 30.24 1024 10 16.09344 0 0
10:15 pm 22:15 Clear 45 7.3 41 4.9 85 85 Calm 30.27 1025 10 16.09344 0 0
10:35 pm 22:35 Clear 44 6.7 41 5 89 89 Calm 30.27 1025 10 16.09344 0 0
10:55 pm 22:55 Clear 44 6.6 41 5.1 90 90 Calm 30.27 1025 10 16.09344 0 0
11:15 pm 23:15 Clear 43 6.2 41 5.2 93 93 Calm 30.27 1025 10 16.09344 0 0
11:35 pm 23:35 Clear 43 5.9 41 4.9 93 93 Calm 30.3 1026 10 16.09344 0 0
11:55 pm 23:55 Clear 42 5.5 40 4.4 93 93 Calm 30.3 1026 10 16.09344 0 0

Powered by AerisWeather